Theta_e
285 286 286 286 285 285 285 285 285 286 286 287 287 287 288 289 289 288 289 290 289 288 288 288 288 288 289 293 295 297 297 298 299 299 299 299 299 299 300 300 300 300 300 300 301 301 301 301 301 301 301 302 302 302 302 303 303 303 303 304 304 304 304 304 305 305 306 306 307 307 307 307 308 308 307 307 308 308 308 307 307 307 307 307 307 307
285 285 285 284 284 285 285 285 285 285 285 286 286 287 288 287 287 288 288 289 289 288 289 289 289 288 287 290 293 296 297 297 298 298 299 299 299 299 300 300 300 300 300 300 300 301 301 301 301 301 301 301 302 302 302 302 302 302 303 303 303 303 303 303 304 304 305 305 306 306 307 307 307 307 307 307 307 307 307 307 307 306 306 306 306 306
285 285 285 285 284 284 285 285 285 285 285 285 286 287 286 286 287 287 288 289 289 289 289 289 289 289 288 290 293 295 296 297 298 298 298 298 299 299 299 299 300 300 300 300 300 301 301 301 301 301 301 301 301 301 302 302 302 302 302 302 302 302 302 303 303 303 304 304 305 305 306 306 306 306 306 306 306 306 306 306 306 306 306 306 306 305
284 285 285 285 285 284 285 285 285 285 286 286 287 287 286 286 287 287 288 288 289 289 289 289 289 289 289 290 292 294 296 297 297 298 298 298 298 299 299 299 300 300 300 300 300 301 301 301 301 301 301 301 301 302 302 302 302 302 302 302 302 302 302 303 303 303 303 304 304 304 305 305 305 305 305 305 305 305 306 306 306 306 306 306 305 305
284 285 285 286 286 285 285 285 286 286 287 287 287 287 286 287 287 288 288 288 288 288 289 289 289 289 289 289 291 293 296 296 297 297 298 298 298 299 299 299 300 300 300 300 300 301 301 301 301 301 301 301 301 301 301 301 301 302 302 302 302 302 302 303 303 303 303 303 304 304 304 304 304 304 305 305 305 305 305 305 305 306 306 306 306 305
285 285 286 286 286 286 286 286 287 287 287 287 287 287 287 287 287 288 288 288 288 288 289 289 289 289 289 290 291 294 295 296 297 297 297 298 298 299 299 299 299 300 300 300 300 300 300 300 301 301 301 301 301 301 301 301 301 301 301 301 302 302 302 302 302 303 303 303 303 303 304 303 304 304 304 304 304 304 304 304 305 305 305 305 305 305
285 286 286 286 286 287 287 287 287 288 287 287 287 287 288 288 287 287 287 287 288 288 289 289 289 289 289 290 292 294 294 295 296 296 297 297 298 298 298 298 299 299 299 299 300 300 300 300 300 300 300 300 301 301 301 301 301 301 301 301 301 301 301 301 302 302 302 302 302 302 302 303 303 303 303 303 303 303 303 303 304 304 304 304 305 304
284 285 286 286 286 286 287 287 287 288 288 287 287 287 287 287 287 287 287 287 287 288 288 288 289 289 289 289 291 292 292 292 293 294 295 295 296 296 297 297 298 298 298 299 299 299 299 300 300 300 300 300 300 300 300 301 301 301 301 300 300 301 301 301 301 301 301 301 301 301 302 302 302 302 302 302 302 302 302 302 303 303 303 303 303 303
284 285 285 285 285 285 286 286 287 288 288 288 287 287 286 287 287 287 288 287 287 288 288 288 288 288 289 289 290 290 291 291 291 291 292 292 293 294 295 296 297 298 298 298 299 299 299 299 300 300 300 300 300 300 300 300 300 300 300 300 300 300 300 300 301 301 301 301 301 301 301 301 301 301 302 302 302 302 301 301 301 301 302 302 302 302
284 285 285 285 286 286 285 286 286 287 288 288 288 287 287 286 286 287 287 287 288 288 288 288 288 288 288 289 289 289 290 292 293 294 295 294 294 295 295 296 296 297 298 298 299 299 299 299 299 300 300 300 300 300 300 300 300 300 300 300 300 300 300 300 300 300 300 300 300 300 301 301 301 301 301 301 301 301 300 300 300 300 300 300 300 301
285 285 285 285 286 286 286 286 287 287 288 288 288 288 288 287 287 286 285 286 287 288 288 288 288 288 288 288 289 289 290 290 291 293 294 295 295 296 296 296 296 297 298 298 298 298 298 299 299 299 299 299 299 299 299 299 299 299 299 299 299 299 299 299 299 299 300 300 300 300 300 300 300 300 300 300 300 300 299 299 299 299 299 299 299 299
285 285 285 285 286 286 286 287 288 288 288 287 287 286 287 288 287 287 286 286 286 287 288 288 289 289 288 288 289 289 289 289 289 289 290 291 292 293 293 293 294 295 295 296 296 297 297 297 298 298 298 298 298 298 298 298 298 298 298 298 298 298 298 298 298 299 299 299 299 299 299 299 299 299 299 299 299 299 299 298 298 298 298 298 298 298
285 285 285 285 286 286 286 286 287 287 287 287 286 286 286 287 288 288 287 287 287 288 288 288 288 289 289 289 289 289 289 289 288 289 289 289 289 289 290 290 290 291 292 292 292 293 295 296 296 297 297 297 297 297 297 297 297 297 297 297 297 297 298 298 298 298 298 298 298 298 298 299 298 298 299 298 298 298 298 298 297 297 297 298 298 298
285 285 285 285 285 286 286 286 286 286 286 286 287 287 287 288 288 288 288 287 288 288 289 288 288 288 289 289 290 290 290 289 289 288 288 289 289 289 288 289 289 289 290 290 290 291 293 294 294 294 295 296 296 296 296 296 296 297 297 297 297 297 297 297 297 297 297 297 297 298 298 298 298 298 298 298 298 297 297 297 297 297 297 297 297 297
285 285 285 284 285 285 286 286 286 286 286 287 287 288 288 288 288 288 288 287 287 288 288 288 288 288 289 290 290 290 290 289 289 288 288 289 289 289 289 288 289 289 290 289 290 291 293 292 292 291 292 293 293 294 295 295 296 296 296 296 296 296 296 297 297 297 297 297 297 297 297 297 297 297 297 297 297 297 297 297 297 297 297 297 297 298
286 286 285 285 286 286 287 287 287 287 287 288 288 288 288 288 288 288 288 287 287 288 287 287 286 287 287 289 290 291 291 290 289 288 288 288 289 289 289 288 288 288 289 289 290 290 291 291 291 291 291 292 293 294 295 295 295 296 296 296 296 296 296 296 296 296 297 297 297 297 297 297 297 297 297 297 296 296 296 296 297 297 297 297 297 298
287 287 287 286 287 287 288 288 288 288 288 289 289 289 289 288 288 288 288 288 288 287 287 286 286 285 286 288 290 291 291 290 289 288 287 287 288 289 289 288 288 288 289 289 289 290 290 290 290 290 291 292 294 295 295 295 295 296 296 296 296 296 296 296 296 296 296 297 297 297 297 297 297 297 297 297 297 297 297 296 297 297 297 297 298 298
287 287 287 287 287 287 288 288 289 289 289 289 289 289 289 289 289 289 288 288 287 287 286 286 286 285 285 286 288 289 291 290 289 288 287 287 288 288 288 288 288 288 288 289 290 290 290 290 290 290 291 293 294 295 295 295 296 296 296 296 296 296 296 296 296 296 296 296 296 296 296 296 296 296 296 296 296 297 297 297 297 297 297 297 297 297
287 288 288 287 287 288 288 289 289 289 289 289 289 289 288 289 289 288 288 288 288 287 287 286 286 286 286 287 288 290 291 290 290 288 288 287 288 288 288 287 287 288 288 289 290 290 290 290 291 292 294 295 295 295 295 296 296 296 296 296 296 296 296 296 296 296 297 296 296 296 296 296 296 296 296 296 296 296 296 296 297 297 297 297 297 297
287 288 288 288 288 288 288 289 290 290 290 290 290 289 288 288 288 288 288 288 288 288 288 287 287 287 288 288 289 290 291 291 290 289 288 287 288 288 288 287 288 288 288 288 289 290 290 290 290 291 293 294 295 295 296 296 296 296 296 296 296 296 296 296 296 296 296 296 296 296 296 296 296 296 296 296 296 296 296 296 296 296 296 297 297 297
288 288 288 289 289 289 289 289 290 291 292 292 290 289 289 289 288 288 288 289 289 289 288 288 288 288 289 289 290 291 292 291 289 288 288 288 288 288 287 287 287 287 287 288 289 290 289 289 289 289 292 293 294 295 295 295 295 296 296 296 296 296 296 296 296 296 296 296 296 296 296 296 296 296 296 296 296 296 296 296 296 296 296 296 296 297
288 288 288 289 290 290 290 290 291 292 292 291 290 289 289 288 288 288 289 289 289 289 289 289 289 290 291 291 291 292 292 291 290 288 288 287 287 287 287 287 287 287 287 288 289 289 288 288 288 289 291 293 294 295 295 295 295 295 295 295 296 296 296 296 296 296 296 296 296 296 296 296 296 296 296 296 296 296 296 296 296 296 296 296 296 296
289 289 289 290 290 290 290 290 291 291 292 291 290 290 290 289 289 289 289 289 289 289 290 290 291 292 292 292 292 292 292 292 291 290 288 287 286 286 287 287 288 288 287 288 288 288 287 287 288 289 291 293 294 294 295 295 295 295 295 295 295 295 295 295 295 295 295 295 295 295 296 296 296 296 296 296 296 296 295 295 295 296 296 296 296 296
290 290 291 291 291 291 290 291 291 291 291 291 291 291 291 291 291 291 291 291 291 291 291 291 291 291 291 291 291 291 292 292 292 290 288 287 286 287 287 287 288 288 288 288 288 287 286 287 287 288 289 292 293 294 294 295 295 295 295 295 295 295 295 295 295 295 295 295 295 295 295 295 295 296 295 295 295 295 295 295 295 295 296 296 296 296
292 292 292 293 293 293 293 292 292 293 293 292 292 292 292 292 293 293 293 292 292 291 291 290 288 288 288 289 290 290 290 291 291 290 289 287 287 287 287 288 288 288 288 288 287 287 286 287 287 287 287 289 292 293 294 294 294 295 295 295 295 295 295 295 295 295 295 295 295 295 295 295 295 295 295 295 295 295 295 295 295 295 295 295 295 296
294 294 295 295 296 297 297 297 297 297 296 295 294 293 293 293 292 292 291 291 290 290 289 287 286 286 287 288 288 288 288 289 291 291 289 288 287 287 287 288 288 288 288 288 287 287 286 286 285 285 285 287 290 292 293 293 294 294 294 294 294 294 294 294 294 294 294 294 294 294 294 295 295 295 295 295 295 295 295 295 295 295 295 295 295 295
296 296 297 297 298 298 298 298 298 298 298 297 296 294 293 291 290 288 287 288 288 288 287 286 286 286 287 287 287 287 288 289 290 290 290 289 288 287 287 287 288 288 288 288 288 288 288 287 286 285 286 286 287 290 292 293 293 293 294 294 294 294 294 294 294 294 294 294 294 294 294 294 294 294 294 294 294 294 294 294 294 294 294 294 294 294
295 296 296 296 297 297 297 297 297 296 296 296 296 295 293 290 288 286 286 287 287 288 287 286 286 286 286 286 287 288 288 289 290 290 290 289 288 287 286 287 287 287 287 287 288 289 290 289 287 286 286 286 286 288 290 292 293 293 293 293 293 293 293 293 293 293 293 293 293 293 294 294 294 294 294 294 294 294 294 294 294 294 294 293 292 292
294 294 295 295 295 295 295 294 294 294 294 294 294 293 292 289 287 287 287 288 288 288 287 287 286 286 286 286 287 287 287 288 289 289 290 288 287 286 285 287 287 287 286 287 287 287 286 286 286 285 285 287 287 287 288 290 291 291 292 292 293 293 293 293 293 293 293 293 293 293 293 293 293 293 293 293 293 293 293 293 293 293 292 292 291 290
291 292 291 291 291 291 290 288 288 290 291 292 292 292 291 289 288 288 288 289 288 287 286 286 286 286 286 286 285 285 286 287 288 289 290 288 287 286 285 286 286 286 285 285 285 284 283 284 284 284 285 287 287 287 286 287 288 288 288 289 290 291 292 292 292 292 292 292 292 292 293 292 292 292 292 292 293 293 293 293 293 292 291 290 290 290
288 288 287 286 285 285 284 284 285 287 289 290 290 290 289 289 288 288 289 289 288 287 286 286 286 286 286 285 284 284 285 286 288 290 289 288 286 286 285 285 284 283 284 285 284 283 282 282 282 283 283 283 284 284 285 285 285 285 284 285 286 288 290 291 291 291 291 291 292 292 292 292 292 292 292 292 292 292 293 293 292 291 290 289 289 289
285 285 284 284 283 282 283 284 284 284 285 287 287 288 288 288 288 288 289 289 289 288 287 287 287 287 287 286 285 285 286 286 288 290 290 288 286 285 285 285 284 283 283 285 285 283 282 282 282 282 280 280 280 281 283 284 284 283 283 283 283 285 288 289 290 290 290 290 291 291 291 291 291 292 292 292 292 292 292 292 292 291 290 289 289 288
285 284 283 283 283 282 282 283 283 283 284 285 285 286 287 288 288 289 289 289 289 289 288 287 287 287 287 287 287 287 287 287 289 291 291 288 286 285 285 285 284 284 283 285 285 285 284 284 283 282 281 280 280 280 281 283 283 283 283 283 282 283 286 287 287 288 288 289 290 290 290 291 291 291 291 291 291 292 292 292 292 291 290 289 289 289
283 283 282 282 281 281 282 282 283 283 284 285 285 286 286 287 288 289 289 290 290 289 289 288 288 287 287 286 286 286 287 287 290 292 292 289 287 285 284 285 285 284 284 284 285 284 284 284 284 283 282 281 281 280 280 281 283 283 281 282 282 282 283 284 285 285 286 287 287 287 288 288 289 290 290 290 290 291 291 291 292 292 291 291 290 289
281 282 281 281 281 281 282 282 282 284 284 285 285 286 287 288 288 289 289 290 290 290 290 290 289 288 287 286 286 285 286 286 288 292 293 290 288 286 285 285 285 285 284 284 284 284 283 283 284 284 284 282 281 281 281 280 281 282 281 282 282 282 281 282 282 283 284 284 284 285 285 286 287 287 288 289 290 290 291 291 291 292 292 291 291 290
281 281 281 281 281 282 282 283 284 284 285 286 287 287 288 288 289 289 289 289 290 289 290 289 289 289 289 288 287 286 286 286 288 290 292 291 289 287 286 285 285 285 285 284 284 284 283 283 284 284 284 283 282 282 281 280 281 281 281 281 281 281 281 281 281 281 282 282 283 283 284 284 285 286 287 289 290 290 291 291 291 291 291 291 291 291
281 281 281 281 282 282 283 284 284 285 286 286 287 287 287 287 288 288 288 288 288 288 289 289 289 290 290 290 289 288 289 289 289 290 291 291 289 288 287 286 286 286 285 285 284 284 284 283 283 284 284 283 283 282 281 281 280 279 279 280 280 280 280 281 281 281 280 282 283 283 284 284 285 286 287 289 289 290 290 291 291 291 291 291 291 291
280 280 281 281 281 282 283 284 284 285 285 285 285 286 286 286 286 287 287 287 287 287 288 288 289 289 290 290 290 289 289 289 288 288 289 289 289 288 287 287 287 287 286 286 285 284 284 283 282 282 282 282 283 283 283 282 281 280 279 279 280 280 279 280 280 281 281 282 283 284 285 285 285 285 286 287 287 287 287 287 288 289 290 290 290 291
279 279 280 281 282 283 283 283 284 284 284 285 285 286 286 286 287 287 287 287 287 287 288 288 288 289 288 289 289 290 290 290 289 288 287 287 288 288 288 287 287 287 287 287 286 285 284 283 283 282 282 282 282 283 283 283 281 279 277 278 279 279 279 280 280 281 282 282 283 284 285 284 284 284 284 284 285 284 284 285 286 287 287 287 288 289
279 280 281 282 283 283 284 284 284 284 284 285 286 286 287 287 287 287 287 287 287 287 287 288 289 289 289 290 290 290 290 290 289 289 288 287 287 287 287 287 287 287 287 287 286 286 285 284 284 284 283 283 283 282 283 282 282 281 282 280 279 278 280 280 280 280 281 280 281 282 282 282 283 283 283 283 283 283 284 284 284 285 286 286 286 287
281 281 282 283 284 285 284 284 284 284 285 285 285 286 287 286 285 285 284 285 285 286 287 288 288 288 288 288 288 288 288 288 289 289 288 287 287 287 287 287 287 287 286 286 286 285 285 284 284 284 284 283 283 283 283 283 284 284 284 283 281 280 281 282 282 281 280 279 280 281 282 283 283 284 283 284 284 284 284 284 284 284 286 286 286 286
283 283 283 284 283 283 283 283 284 285 285 285 286 286 285 284 283 282 282 283 283 284 285 285 285 285 285 285 286 286 287 287 288 288 288 287 287 287 287 287 287 287 286 286 285 285 286 285 285 284 284 284 283 283 283 283 283 284 285 283 282 282 282 283 282 281 280 279 278 279 283 282 282 281 282 283 283 283 284 284 284 285 286 286 286 287
284 284 283 283 282 283 284 284 285 285 285 286 285 284 283 282 282 282 283 282 283 283 284 283 283 283 283 283 284 285 286 286 287 288 288 287 287 287 287 287 287 287 286 285 285 285 285 285 285 285 284 284 284 283 282 283 282 282 281 282 282 282 282 282 281 279 278 278 278 277 278 279 279 280 281 281 282 282 283 284 285 286 287 286 286 287
283 283 282 282 283 283 284 284 284 284 285 284 283 282 282 282 282 283 283 282 283 283 283 283 283 282 282 282 283 284 284 284 285 286 287 288 288 287 287 287 287 287 286 285 285 284 284 284 285 285 284 284 284 283 283 282 281 279 277 280 281 282 281 282 281 279 276 276 277 277 276 278 278 278 279 279 280 280 281 281 282 283 285 286 286 286
283 283 283 283 284 284 283 283 284 284 284 283 282 282 281 282 282 283 283 282 282 282 282 282 282 282 281 282 282 283 283 283 283 284 285 287 289 289 288 287 287 286 286 286 285 285 284 284 283 283 283 284 284 283 283 283 282 281 280 281 282 282 280 282 282 281 279 277 276 276 276 277 277 277 277 277 278 278 279 279 280 281 282 283 284 285
283 283 283 283 284 284 284 284 283 283 282 282 282 282 281 282 282 282 282 282 282 282 282 282 282 281 280 281 282 283 283 283 283 283 284 285 286 287 288 288 287 287 286 286 286 286 285 285 284 284 283 283 283 283 283 283 282 282 281 281 282 282 280 280 280 279 278 278 277 276 276 276 276 276 277 277 277 277 277 278 279 280 280 282 283 284
283 283 283 283 283 283 283 283 283 283 282 282 282 281 282 282 282 281 281 282 282 282 282 282 281 281 280 281 282 282 282 282 282 282 282 283 284 285 286 287 287 288 287 287 286 286 286 286 285 284 284 283 282 282 282 282 282 282 281 281 281 282 281 279 278 278 279 279 278 277 276 276 276 276 276 276 276 276 276 277 278 279 280 281 282 283
283 283 283 283 283 283 283 283 282 282 282 282 281 281 282 282 282 282 282 282 282 281 281 281 280 280 280 281 282 282 282 283 282 282 282 282 282 283 284 285 286 287 287 287 287 287 287 286 286 285 284 283 282 281 282 281 281 282 282 282 282 282 282 280 279 279 280 280 279 279 278 278 277 276 275 275 275 275 275 277 278 279 280 281 282 283
284 284 283 283 283 282 282 282 282 282 282 282 282 282 282 282 283 283 282 281 281 281 280 280 280 280 280 281 281 282 283 284 283 282 281 281 282 282 283 283 284 285 285 286 286 286 287 287 287 286 286 285 283 282 282 281 281 282 282 282 282 282 282 281 280 280 280 279 279 278 279 278 277 277 277 278 276 275 274 276 277 278 279 280 281 282
284 283 283 283 282 282 282 282 282 282 282 282 282 281 280 280 280 281 281 281 281 280 280 280 280 280 280 280 281 282 282 283 283 283 281 282 282 282 283 283 283 283 283 283 283 284 284 284 285 286 288 287 286 284 283 282 282 282 282 282 282 282 282 282 281 281 279 279 279 278 278 278 278 278 280 280 278 275 273 275 276 278 278 280 281 282
283 283 283 283 282 282 282 282 282 282 282 282 282 281 280 279 279 280 279 280 280 280 280 280 280 280 280 280 281 282 282 282 283 283 282 283 283 283 283 283 283 282 282 281 281 281 281 280 281 282 284 287 288 287 285 283 283 282 282 281 281 281 282 282 281 281 282 281 280 278 278 279 279 280 280 280 278 275 273 274 275 276 277 279 280 282
Wind_Speed
6 6 6 7 7 6 7 8 8 9 9 8 8 8 8 9 8 8 10 10 10 9 9 9 9 10 12 16 19 22 24 25 26 26 27 27 27 27 27 27 27 27 26 26 26 26 26 25 25 25 25 25 25 25 25 25 25 24 24 24 23 23 23 23 22 22 22 22 23 23 24 24 25 25 25 25 24 24 25 25 25 25 25 24 24 24
6 5 5 6 6 7 7 8 8 8 8 8 8 8 9 8 8 8 9 10 10 9 9 9 9 10 11 13 17 21 23 25 25 26 26 26 26 26 26 26 26 26 26 25 25 25 25 25 25 25 25 25 24 24 24 24 24 24 24 24 23 23 23 23 23 23 23 23 23 23 24 24 25 25 25 24 24 24 25 25 25 25 25 25 24 24
7 6 5 5 6 6 6 7 7 7 7 8 9 9 9 9 9 8 8 9 10 10 9 9 9 10 11 12 16 20 22 24 25 25 25 25 25 25 25 25 25 25 25 25 25 25 24 24 24 24 24 24 24 24 24 24 24 24 23 23 23 23 23 23 23 23 23 23 23 23 24 24 24 24 24 24 24 24 25 25 26 25 25 24 24 24
8 8 7 6 5 6 7 7 7 7 7 8 9 10 10 9 9 9 9 9 9 9 9 10 10 10 10 11 14 18 21 23 24 25 25 25 25 25 25 25 25 25 25 25 25 25 24 24 24 24 24 24 24 24 24 24 23 23 23 23 23 23 23 23 23 23 23 23 23 23 23 23 23 23 23 23 23 24 24 25 25 25 25 24 24 23
8 8 7 6 6 6 6 7 7 7 7 8 8 9 9 8 8 8 8 9 9 9 9 9 9 9 9 9 12 16 20 23 24 24 25 25 25 25 25 25 25 25 25 25 25 25 24 24 24 24 24 23 23 23 23 23 23 23 22 22 22 22 22 22 23 23 23 22 22 22 22 22 22 22 22 22 22 22 23 23 24 24 23 23 23 23
8 8 7 6 6 6 6 6 6 7 7 7 7 8 8 7 7 7 7 8 8 8 8 8 8 8 9 9 12 16 20 22 23 24 24 25 25 25 25 25 25 25 25 25 25 25 24 24 24 24 23 23 23 23 23 23 22 22 22 22 22 22 22 22 22 21 21 21 21 21 21 21 21 21 21 21 21 21 21 21 22 22 22 22 22 22
8 7 7 7 6 6 6 6 7 7 7 7 7 7 7 7 7 7 7 7 7 7 7 8 8 8 9 10 13 15 17 19 21 22 23 24 24 24 24 24 24 24 24 24 24 24 24 24 24 23 23 23 23 23 22 22 22 22 22 22 21 21 21 21 21 21 21 20 20 21 20 20 20 20 20 20 20 19 19 19 20 20 20 21 21 21
8 8 7 7 7 6 6 7 7 7 7 7 7 7 7 7 7 7 7 7 7 7 7 7 8 8 8 9 10 12 12 13 14 15 17 18 19 20 21 22 23 23 23 24 24 24 23 23 23 23 23 23 23 22 22 22 22 22 22 22 21 21 21 21 21 21 21 21 21 20 20 20 20 19 19 19 18 18 18 18 19 19 20 20 21 21
10 9 8 8 8 7 7 7 7 7 7 7 7 8 8 8 8 8 7 8 7 6 6 6 7 8 8 7 8 8 9 10 10 10 11 11 12 14 17 18 20 21 22 23 23 23 23 23 23 23 23 23 23 23 22 22 22 22 22 21 21 21 21 21 21 21 21 21 21 20 20 20 19 19 18 18 18 18 18 18 18 19 19 20 21 21
10 10 9 8 7 7 8 8 8 7 7 7 8 8 8 9 9 8 8 8 7 6 6 7 7 8 8 7 6 6 8 10 12 13 14 14 14 15 16 17 17 18 21 22 23 23 23 23 23 23 23 23 23 23 22 22 22 22 21 21 21 20 20 20 20 20 20 20 20 20 20 19 19 18 18 18 17 17 17 18 18 19 19 20 20 21
9 9 8 7 7 7 7 8 7 7 6 7 7 7 7 8 8 8 9 9 8 7 6 7 7 7 7 6 6 6 6 7 9 11 14 16 17 18 18 18 18 19 21 21 22 23 23 23 23 23 23 23 23 22 22 21 21 21 20 20 20 19 19 19 19 19 19 19 19 19 19 19 18 18 18 17 17 17 17 18 18 19 19 19 20 21
8 7 6 6 6 5 6 6 6 6 6 6 6 6 7 7 7 7 8 9 8 8 8 7 6 6 7 6 6 6 5 6 6 7 8 10 11 12 13 13 14 16 17 18 19 20 21 22 22 22 21 21 21 21 20 20 19 19 19 19 19 19 19 18 18 18 19 19 19 19 19 18 18 18 18 17 17 17 18 18 18 18 19 19 20 20
7 6 5 5 5 5 5 5 5 5 5 6 6 7 7 6 6 6 7 8 8 8 8 7 6 6 6 6 6 5 5 6 6 6 6 6 6 6 6 7 8 8 9 10 11 12 16 18 18 19 19 19 19 19 19 18 18 18 18 18 18 18 18 18 18 18 18 18 18 18 19 18 18 18 18 18 18 18 18 18 18 19 19 19 20 21
6 5 5 5 5 5 5 6 6 6 6 6 6 6 6 5 5 5 6 7 7 7 6 8 7 7 6 7 6 6 6 6 6 6 6 6 5 5 5 5 6 6 6 6 7 9 11 12 12 13 15 16 17 17 16 17 17 18 18 18 18 18 18 18 18 18 18 18 18 18 18 18 18 18 18 18 18 18 18 18 19 19 19 20 21 21
5 5 6 6 6 5 5 5 6 6 6 6 6 6 6 5 5 5 5 6 6 6 5 7 8 8 7 6 6 5 6 6 6 6 7 7 6 5 5 5 6 6 6 6 7 8 10 9 8 8 10 11 12 13 14 15 16 17 18 18 18 18 18 18 18 18 18 18 18 18 18 18 18 18 18 18 18 18 18 19 19 20 20 21 21 22
5 5 6 6 6 5 5 5 6 6 6 5 5 5 5 5 5 5 5 6 5 5 5 6 7 7 7 6 5 5 6 6 6 6 7 7 6 5 5 5 5 6 6 6 7 7 7 7 7 7 8 11 13 15 17 16 17 18 18 18 18 18 18 18 18 18 18 18 18 18 18 18 18 18 18 18 18 18 19 19 20 20 21 21 22 23
5 5 6 6 6 6 6 6 6 6 6 5 5 5 5 5 5 5 5 5 4 4 4 5 6 6 6 5 5 5 5 5 5 5 6 6 5 4 4 4 5 6 6 7 7 6 6 6 6 7 7 11 14 16 17 17 18 18 18 18 18 18 18 18 18 18 18 18 18 18 18 18 18 18 18 18 18 19 19 19 20 20 21 21 22 23
5 5 6 6 6 6 6 6 6 6 6 5 5 5 5 5 5 5 5 4 4 4 5 5 5 5 6 6 4 3 4 4 3 4 5 6 5 4 3 4 5 6 7 7 7 6 6 6 6 7 8 13 15 17 18 18 18 18 18 19 19 19 19 18 18 18 18 18 18 18 18 18 18 18 18 19 19 19 19 20 20 21 21 22 22 22
6 5 6 6 6 6 6 6 6 5 5 4 4 3 3 4 4 4 5 5 5 6 6 6 5 5 6 7 7 5 4 4 3 4 5 6 5 4 2 3 4 6 7 7 7 7 6 6 8 10 13 15 17 18 18 19 19 19 19 19 19 19 19 19 18 18 18 18 18 18 18 18 19 19 19 19 19 19 19 20 20 21 21 21 22 22
6 5 5 6 6 7 7 7 6 5 5 4 4 4 4 4 4 5 5 5 5 6 6 7 7 7 6 8 8 6 4 3 3 4 5 6 6 4 3 3 4 6 7 7 7 7 6 6 7 10 13 15 17 18 19 19 19 19 19 19 19 19 19 19 19 18 18 19 19 19 19 19 19 19 19 19 19 19 19 20 20 20 21 21 22 22
7 7 6 6 6 6 6 5 5 5 5 5 5 5 5 5 5 6 5 5 5 6 5 6 7 7 6 7 7 6 3 2 3 3 4 5 5 5 3 3 4 6 7 7 7 6 6 6 6 7 10 14 16 18 19 19 19 19 19 19 19 19 19 19 19 19 19 19 19 19 19 19 19 19 19 19 19 19 19 19 20 20 21 21 22 22
9 8 8 8 7 7 6 6 7 7 8 7 6 5 5 5 6 6 6 6 6 6 6 6 7 7 6 7 7 5 3 3 3 4 3 4 5 5 3 3 4 5 7 7 6 5 5 5 5 6 10 14 16 17 18 19 19 19 19 19 19 19 19 18 18 18 18 19 19 19 19 19 19 19 19 19 19 19 19 19 19 20 20 21 21 22
10 10 10 9 9 8 7 8 8 8 9 8 7 7 5 5 6 6 6 6 6 6 7 7 7 7 6 6 6 5 4 4 4 4 4 5 5 5 3 3 4 5 7 6 5 5 4 5 5 7 9 14 16 17 18 19 19 19 19 18 18 18 18 18 18 18 18 19 19 19 19 19 19 19 19 19 19 19 19 19 19 19 20 20 21 21
10 10 10 9 8 7 6 7 7 7 7 7 7 7 6 6 6 6 5 6 6 6 6 6 6 6 6 7 6 5 5 4 4 4 4 5 5 5 3 3 4 6 7 6 5 4 4 5 5 5 6 11 15 16 18 18 18 18 18 18 18 18 18 18 18 18 18 18 19 19 19 19 18 18 18 18 18 18 18 18 19 19 20 20 21 21
9 9 9 9 10 10 9 9 9 9 7 7 6 6 6 7 7 7 6 6 6 6 5 6 6 7 6 6 5 4 4 4 4 4 3 4 4 4 4 3 4 6 6 5 4 3 3 4 4 4 4 8 12 15 16 17 17 17 17 17 17 17 17 17 17 17 18 18 18 18 18 18 18 18 18 18 18 18 18 18 18 19 20 20 20 21
14 15 16 17 19 20 19 18 16 15 14 11 8 6 6 6 6 6 5 6 6 6 7 8 8 8 6 5 4 4 3 4 4 5 4 4 4 5 4 4 4 5 6 5 4 3 3 4 4 3 4 5 8 12 14 15 16 16 16 16 16 16 16 17 17 17 17 17 17 18 18 18 17 17 17 17 17 17 17 18 18 19 20 20 20 20
23 25 27 27 26 25 23 21 20 19 19 17 14 12 9 6 6 6 7 7 6 6 7 8 9 8 6 5 4 3 3 3 3 4 4 4 4 5 4 4 4 4 5 5 4 4 4 4 4 3 3 4 5 8 12 13 14 15 15 15 16 16 16 16 16 16 16 16 16 17 17 17 17 16 16 16 16 17 17 18 18 19 19 18 17 15
23 24 24 24 23 22 20 19 18 18 18 19 19 18 13 7 6 7 8 7 6 6 7 8 8 7 6 4 4 3 3 3 3 3 4 3 4 5 4 3 3 4 4 4 4 4 5 4 4 3 3 4 4 5 8 11 12 13 14 14 14 15 15 15 15 15 15 15 15 15 16 16 16 16 15 16 16 16 17 18 18 18 17 14 10 7
17 17 17 18 18 17 16 14 14 15 17 18 19 17 12 7 6 6 7 6 6 6 7 7 7 7 6 5 5 4 4 4 4 4 3 3 4 4 3 3 3 3 3 3 3 3 3 3 3 3 3 4 4 4 5 7 9 10 10 12 12 13 13 13 14 14 14 14 14 15 15 15 15 15 15 16 16 16 17 18 17 15 12 9 7 6
8 8 9 10 11 11 11 9 10 11 14 16 17 16 11 6 5 6 6 5 6 7 8 8 7 7 6 6 6 5 5 5 4 4 4 3 3 3 2 3 3 3 2 2 2 2 3 2 2 2 3 4 4 3 3 4 4 4 5 7 8 9 11 12 13 13 13 13 14 14 14 14 15 15 15 15 16 16 17 17 16 12 7 6 6 6
3 4 4 5 6 6 6 6 7 8 10 12 13 12 9 6 5 5 6 6 6 7 7 7 7 7 6 6 5 5 4 3 2 3 3 3 3 3 2 3 3 2 2 2 2 2 2 2 1 1 1 2 2 2 2 2 2 2 2 3 4 6 9 10 11 11 12 12 13 13 13 14 14 15 15 15 16 16 17 17 16 12 7 6 6 7
3 3 4 4 4 4 4 5 5 5 6 7 7 7 7 7 6 5 5 6 6 7 7 7 7 7 7 6 5 4 3 2 1 2 3 2 2 2 2 2 2 2 2 3 3 2 2 2 1 1 1 1 1 1 2 2 2 2 2 2 3 4 7 8 9 9 9 10 11 12 13 13 14 14 15 15 15 16 17 17 16 13 8 6 6 7
3 3 4 4 4 4 4 4 4 5 5 5 5 5 6 6 6 6 6 6 6 7 7 8 8 7 7 6 6 5 4 3 2 2 3 2 2 2 2 2 2 2 2 3 3 3 3 2 2 1 1 1 1 1 2 2 3 3 3 3 3 4 5 6 6 6 6 7 8 9 11 12 13 13 14 15 15 16 16 17 16 14 11 8 7 7
4 4 4 4 4 4 4 5 5 5 5 5 5 5 5 5 6 6 6 6 6 6 7 7 7 6 6 5 5 5 4 3 3 3 3 3 2 2 2 2 3 2 2 2 3 3 3 3 2 2 1 1 1 1 2 2 3 3 4 4 3 3 4 3 3 4 5 5 5 5 7 8 9 11 12 13 14 14 15 16 16 16 15 11 9 7
3 4 4 4 4 4 5 5 5 5 5 5 5 5 5 5 5 5 5 5 5 5 6 6 6 6 6 5 6 6 5 4 4 4 4 3 3 2 2 3 3 2 2 2 2 2 2 3 3 3 2 2 1 1 2 2 2 2 3 3 3 3 3 3 3 3 4 4 4 4 4 4 5 7 8 10 12 13 15 16 16 17 17 15 13 10
3 4 4 4 4 4 5 5 5 5 5 4 4 4 5 5 4 4 4 5 5 6 6 6 6 6 6 6 7 7 6 5 4 5 5 4 4 3 3 3 3 3 3 3 3 2 2 2 3 3 3 3 2 2 1 1 1 1 1 2 3 3 3 3 3 3 3 3 3 3 4 4 4 5 6 10 12 14 15 15 16 17 17 17 16 14
3 4 4 4 4 4 5 4 4 4 4 4 4 4 5 5 5 5 5 5 5 6 7 7 8 8 8 8 7 7 7 6 5 6 7 6 5 4 3 3 3 3 4 3 3 3 3 3 3 3 3 3 2 2 1 1 0 0 1 2 3 3 3 3 3 3 3 3 4 4 4 4 4 5 6 9 11 12 13 14 15 15 16 17 17 17
3 4 4 4 4 4 4 4 4 4 4 4 5 5 6 6 6 6 6 6 6 6 7 7 7 8 11 11 10 9 8 8 8 8 8 7 6 5 5 4 3 4 4 4 3 3 3 3 3 3 3 3 3 3 2 1 1 1 2 2 2 2 3 3 3 3 3 4 4 5 5 5 5 5 5 6 6 6 7 8 9 11 13 13 15 16
4 3 4 4 4 3 3 4 4 4 4 5 5 6 6 7 7 6 5 5 5 6 7 7 8 8 10 10 11 10 10 9 9 8 8 7 6 5 5 4 4 4 4 4 3 3 3 3 3 3 3 2 2 2 2 2 2 1 1 1 1 2 3 3 3 4 4 4 4 5 5 5 4 4 4 4 4 4 5 5 6 7 8 7 9 12
4 4 4 4 4 4 4 4 4 4 4 6 6 7 6 5 4 4 4 4 5 6 7 8 8 8 8 8 8 8 8 7 8 8 7 6 5 5 5 5 4 4 4 3 4 4 4 4 4 4 3 3 2 2 2 2 2 2 2 1 1 2 3 3 3 3 3 4 4 4 4 4 4 4 4 4 4 4 4 4 4 5 6 5 6 7
4 4 4 4 4 4 4 4 4 4 5 5 5 5 4 3 3 3 4 4 5 5 6 6 6 6 6 6 6 6 7 7 8 8 6 6 6 6 5 5 4 4 3 3 4 4 4 4 4 4 4 3 3 3 3 3 3 3 3 3 3 3 3 3 3 3 3 3 4 4 4 4 4 5 4 5 4 4 4 4 4 5 5 4 4 5
5 5 4 4 4 4 4 4 4 5 5 5 4 3 2 3 3 4 4 5 5 5 4 5 5 6 7 7 6 6 6 7 7 7 7 7 7 6 6 5 4 4 3 3 4 4 4 4 4 4 4 3 3 3 3 3 3 3 3 3 3 3 3 3 3 3 3 3 3 4 5 4 4 4 4 4 4 4 4 4 5 6 6 4 4 4
5 4 4 4 4 4 4 4 5 5 5 4 3 2 2 3 4 4 5 5 5 5 5 5 6 7 7 7 6 5 5 5 6 7 7 6 6 6 6 6 5 4 3 3 3 4 4 5 5 4 4 3 3 4 4 3 2 2 2 3 3 3 3 2 1 1 2 2 2 3 3 3 3 3 4 4 4 4 4 5 7 7 7 5 4 4
4 4 3 4 4 4 4 4 4 4 4 4 3 3 3 4 4 5 5 5 5 6 5 5 5 6 7 7 6 5 4 4 4 5 6 6 7 6 6 6 6 5 4 4 3 3 3 4 4 4 3 3 3 4 4 3 2 2 2 3 3 4 4 3 2 1 1 1 2 2 2 2 2 2 3 3 4 4 3 4 4 4 5 4 4 4
3 3 4 4 4 4 4 4 4 4 4 4 4 4 4 4 4 4 4 5 5 5 5 5 5 5 6 6 6 5 4 3 3 3 4 6 7 8 7 6 6 5 5 5 4 4 3 3 3 3 2 3 3 4 4 4 3 2 3 3 4 4 4 3 3 2 2 2 2 2 2 2 1 2 3 3 3 3 3 3 4 4 4 3 3 3
3 3 4 4 4 4 5 5 4 4 4 4 4 4 4 4 4 4 4 4 5 5 5 5 5 5 6 6 6 5 5 4 4 3 3 3 4 5 6 6 5 5 4 5 5 4 4 4 3 2 2 3 3 4 4 4 3 3 3 3 3 4 4 3 3 3 3 2 3 3 2 1 1 1 3 3 4 4 3 3 3 3 3 3 3 3
3 4 4 4 4 4 4 4 4 4 5 5 5 4 4 3 3 3 3 4 4 4 5 5 5 6 7 7 6 6 6 5 5 4 3 3 3 3 4 4 5 5 5 4 5 5 5 4 4 3 3 3 3 3 3 3 3 4 3 3 3 3 3 3 3 3 3 3 3 2 1 0 0 1 2 2 3 3 3 3 3 3 3 3 3 3
4 4 4 4 4 4 4 4 4 5 5 5 4 4 3 3 4 4 4 3 4 4 5 5 5 6 6 6 6 6 7 6 5 4 4 3 3 2 3 3 3 4 4 5 5 5 5 5 5 4 4 4 3 3 3 3 3 3 3 3 3 3 4 3 2 2 3 3 3 3 2 1 2 2 2 2 2 3 3 3 3 3 3 3 2 3
4 4 4 4 5 5 5 5 5 5 5 5 4 3 3 4 5 5 4 3 4 4 4 5 6 6 6 6 6 7 7 7 6 4 4 3 2 2 2 2 2 2 3 3 4 4 4 4 5 6 5 5 4 4 4 3 3 3 3 3 3 3 4 3 2 2 2 2 3 3 2 2 2 2 2 2 2 3 4 4 3 3 3 2 2 2
4 4 5 5 5 5 5 5 5 5 5 5 4 4 3 3 3 3 3 3 4 4 4 5 5 6 6 6 6 6 7 6 5 4 3 3 2 2 2 2 2 2 2 2 2 2 2 3 4 5 7 8 7 6 5 4 3 3 3 3 3 3 4 4 3 2 2 2 2 2 2 2 2 2 2 2 2 3 3 4 4 4 3 2 2 2
5 5 5 5 5 5 5 5 5 5 5 5 5 4 4 3 3 3 3 3 4 4 4 5 5 6 6 6 6 7 6 6 6 5 4 3 3 3 3 2 2 2 2 2 2 1 1 1 2 3 6 10 11 10 6 5 4 3 3 3 3 3 3 3 3 2 2 3 2 2 2 2 2 2 2 2 1 2 3 3 4 4 3 3 2 2
Wind_Direction
283 286 288 289 289 287 286 286 288 290 291 291 290 290 290 289 288 286 286 285 284 281 280 279 278 278 279 280 281 282 283 283 283 284 283 283 283 283 282 282 282 282 281 281 281 281 280 280 280 279 279 278 278 278 278 278 278 278 278 278 279 279 279 278 278 277 275 274 273 272 272 272 272 272 272 273 273 274 274 274 273 273 272 273 274 276
280 280 280 279 278 279 282 282 282 283 286 286 286 286 287 287 286 285 284 282 280 278 277 278 277 276 275 277 279 281 282 282 283 283 283 283 283 283 283 283 282 282 282 282 281 281 281 280 280 279 279 278 278 277 277 277 277 277 277 277 278 278 279 279 278 277 275 274 273 272 272 272 272 273 274 274 275 275 275 275 274 274 274 275 276 278
285 282 278 275 274 275 280 281 280 279 280 282 282 282 283 284 284 284 283 283 282 280 278 278 278 278 277 277 279 280 281 282 283 283 283 283 284 284 283 283 283 283 283 282 282 282 282 281 281 280 280 279 279 278 278 277 277 277 277 277 277 278 278 278 277 276 275 274 273 272 272 272 272 273 274 274 275 275 275 275 274 274 274 274 275 276
280 280 280 280 277 274 275 279 279 278 276 278 279 279 279 279 280 280 279 280 280 280 279 277 277 277 277 277 278 279 280 281 282 282 282 283 283 283 283 283 283 283 283 283 283 283 282 282 282 282 282 281 281 280 280 279 279 278 278 278 278 278 278 277 277 277 276 275 274 273 272 272 272 272 273 273 274 275 275 275 274 274 273 273 273 274
273 276 280 281 279 276 273 274 275 275 274 274 275 276 275 274 275 276 277 277 277 278 278 276 275 273 273 274 276 277 279 280 281 281 282 282 283 283 283 283 283 283 283 283 283 283 283 283 284 284 284 283 283 283 282 282 281 281 280 280 279 279 278 278 278 277 277 277 275 274 273 272 271 271 272 272 273 274 275 275 275 274 273 272 272 273
272 274 278 278 278 277 278 275 274 275 276 274 273 272 271 271 272 274 276 276 277 277 277 276 274 272 271 272 274 276 278 279 280 281 281 282 282 282 283 283 283 283 283 283 283 283 283 284 284 284 285 285 285 284 284 283 283 282 282 282 281 280 280 279 279 279 278 278 277 276 274 273 272 272 271 271 272 273 274 274 275 275 275 274 273 273
272 272 275 275 275 275 276 274 273 272 274 276 276 274 272 272 271 272 272 274 275 277 278 277 276 274 272 271 273 275 277 278 279 280 281 281 281 281 282 282 282 282 282 282 282 282 283 283 283 284 284 284 284 284 284 283 283 283 282 282 281 281 280 280 280 280 279 279 278 277 276 275 274 273 273 273 273 273 274 275 276 276 276 276 276 275
273 272 271 273 274 275 272 271 270 271 272 275 277 278 277 275 273 272 271 270 271 273 276 278 277 275 272 270 271 272 274 276 277 278 279 279 279 279 279 280 280 280 280 280 280 280 281 281 281 282 282 283 283 282 282 282 282 282 281 281 281 281 281 281 281 281 281 280 279 278 277 277 276 276 275 275 274 274 275 275 276 277 277 277 277 277
270 272 270 269 271 274 275 271 269 267 269 271 272 274 276 277 276 275 274 272 270 270 273 276 278 277 274 271 269 268 269 269 269 270 271 271 272 273 275 276 277 278 278 278 279 279 279 280 280 281 281 281 281 281 281 281 281 281 282 282 282 281 282 282 282 282 281 281 280 280 279 278 278 277 276 276 276 275 276 276 276 277 277 278 278 278
264 267 269 267 265 267 271 272 270 266 263 265 266 267 270 274 277 278 277 275 273 271 271 272 275 276 277 274 271 268 268 268 268 268 269 269 270 271 273 275 276 277 278 278 278 279 279 280 280 281 281 281 281 281 281 282 282 282 283 284 283 283 283 283 283 282 282 281 281 280 279 279 278 278 277 277 276 276 276 275 276 276 276 277 277 278
263 263 265 265 263 261 262 267 269 268 262 262 262 262 262 265 269 273 274 274 274 273 272 270 270 272 276 277 276 273 269 270 270 270 270 271 272 273 275 276 277 278 278 279 279 279 280 280 280 281 281 281 281 282 282 282 282 283 283 284 284 284 284 283 283 283 282 282 281 281 280 279 278 277 277 276 275 275 274 274 274 274 275 276 276 277
263 262 261 261 261 260 260 263 266 266 262 261 261 261 259 256 258 262 266 269 272 274 275 272 269 266 268 273 277 278 275 272 270 270 270 270 270 272 274 275 276 277 278 278 279 279 279 279 279 279 280 280 280 280 280 280 281 281 282 282 282 283 283 283 283 283 283 283 282 282 281 279 278 277 276 275 274 274 273 273 273 274 275 275 276 276
259 259 259 259 259 259 259 262 263 262 258 256 257 259 261 258 257 257 261 264 268 271 275 276 273 268 265 267 271 275 276 273 272 270 268 267 265 264 266 269 270 271 273 274 274 274 276 277 277 277 277 277 277 278 278 278 279 280 280 281 281 281 281 281 282 282 282 282 282 282 281 280 279 278 276 276 275 275 274 275 275 275 276 276 275 275
257 256 256 256 255 253 252 253 255 256 254 252 254 257 261 262 261 260 261 263 266 269 273 275 274 272 269 266 265 267 270 271 271 269 267 263 259 255 255 260 262 263 263 265 265 266 268 270 272 273 274 274 274 275 275 277 277 278 278 279 279 279 279 279 280 280 280 280 280 280 280 280 279 279 278 277 277 277 276 276 276 276 276 275 274 274
255 253 252 251 250 249 248 251 254 256 256 256 257 260 263 262 260 258 259 263 266 269 272 272 272 272 270 266 262 259 259 262 264 266 265 263 257 250 245 253 258 260 258 259 261 263 263 263 264 265 267 267 267 268 270 272 274 275 275 276 276 277 277 277 277 278 278 278 278 279 279 278 278 278 278 277 277 277 277 276 276 276 275 274 274 273
252 251 251 252 252 252 252 255 258 260 260 259 257 257 258 257 255 254 256 262 266 271 271 272 274 274 270 261 251 246 246 251 255 259 262 263 258 246 231 244 254 258 257 256 258 260 261 258 257 257 259 262 264 265 267 268 270 272 272 273 274 274 274 275 275 276 276 276 277 277 277 277 277 276 276 276 276 276 276 275 275 275 274 274 273 273
259 258 258 260 261 261 261 262 262 261 261 260 256 253 250 251 253 255 258 263 267 270 268 270 274 277 279 273 257 239 229 239 247 255 259 263 261 248 222 232 247 256 257 255 255 257 258 256 255 255 255 259 262 264 266 267 269 270 271 272 272 273 273 274 274 275 275 275 275 275 276 275 275 275 275 275 275 275 275 275 275 275 275 275 274 274
264 263 264 265 267 267 268 266 263 262 261 259 257 254 250 250 252 255 259 262 264 265 265 265 266 270 278 281 273 250 224 233 247 259 263 266 264 253 220 222 239 252 257 256 255 254 254 253 252 252 254 259 261 263 265 267 268 270 271 272 272 273 274 274 275 275 275 275 275 275 275 275 275 274 274 275 275 275 276 276 276 277 277 276 276 276
267 266 267 268 270 271 271 267 264 262 260 258 256 256 257 255 256 258 260 260 259 259 261 261 261 263 267 272 272 267 247 244 250 261 265 267 267 260 229 223 238 249 255 255 255 254 252 252 252 253 256 259 262 263 265 267 269 270 272 273 274 275 275 276 276 277 277 276 276 276 275 275 275 275 275 276 276 277 277 278 278 279 279 279 278 278
276 274 273 275 277 276 272 268 264 263 264 265 265 264 263 263 262 261 260 259 256 255 255 257 259 261 264 268 272 273 267 255 254 258 262 265 266 263 241 232 242 250 254 254 252 251 250 250 252 255 257 259 261 263 265 267 269 271 273 274 275 276 277 278 278 278 278 278 278 277 277 276 276 276 277 277 278 278 279 280 280 281 281 281 280 279
282 279 275 275 276 275 272 270 270 271 272 272 270 267 264 262 260 258 256 256 256 255 254 255 257 260 264 269 273 276 275 257 250 253 260 261 261 256 239 231 238 248 253 254 252 249 247 247 248 250 254 257 259 262 264 266 268 270 272 274 275 276 277 278 279 279 279 279 279 278 278 277 277 277 278 278 279 279 280 281 282 282 282 282 281 280
275 273 271 270 269 268 271 274 273 271 267 265 262 260 259 257 256 256 255 256 257 258 258 259 261 263 267 270 273 274 265 242 239 245 258 261 260 255 237 226 235 246 252 254 253 249 242 243 245 246 249 253 256 259 261 264 266 269 271 273 275 276 277 278 279 279 280 280 279 279 279 278 278 278 278 278 279 280 281 282 283 284 284 284 283 282
264 265 266 266 264 264 265 267 267 264 259 255 253 252 253 253 255 258 260 261 262 264 265 267 269 270 270 270 271 267 251 233 230 236 250 259 262 260 243 230 238 247 252 253 252 248 239 240 241 244 248 251 253 256 259 262 265 267 270 272 274 276 277 278 279 280 280 280 280 280 280 279 278 278 278 278 278 280 281 282 284 285 285 285 285 284
259 260 261 260 258 256 257 259 259 258 254 252 251 251 253 255 257 260 263 264 266 268 271 274 275 274 271 269 267 261 243 226 221 228 242 255 261 263 255 245 250 255 257 254 249 242 237 239 238 238 242 247 251 254 257 260 263 266 269 272 274 276 277 279 280 280 281 281 281 281 281 280 279 278 277 277 278 279 281 283 284 285 286 286 286 286
262 264 265 263 261 259 258 257 256 255 255 254 254 256 261 264 266 266 266 266 267 271 275 279 278 277 275 272 266 256 236 214 209 215 234 252 261 262 256 250 255 261 263 259 249 236 234 240 239 236 234 243 248 252 255 259 262 266 269 271 274 276 277 279 280 281 282 282 282 282 281 280 279 278 277 278 279 280 282 283 285 286 287 287 287 287
277 277 276 275 274 273 271 268 267 267 270 272 272 273 278 279 279 278 277 275 277 280 283 281 278 275 273 269 262 252 232 207 203 207 221 245 259 261 256 249 252 259 265 264 255 240 236 242 241 236 228 238 246 250 253 257 261 264 268 271 273 275 277 278 280 281 282 282 283 283 282 281 280 280 279 280 281 282 284 285 286 287 288 288 289 289
286 287 286 285 283 281 278 276 278 281 285 290 293 295 295 295 293 289 284 282 282 282 278 274 273 272 270 265 258 249 233 214 206 207 214 238 255 261 257 249 249 255 263 264 257 245 242 245 242 236 229 230 236 244 251 255 259 263 266 269 272 274 276 278 280 281 283 283 284 284 284 283 283 283 283 283 284 284 285 287 288 288 289 290 290 291
290 292 294 293 291 288 285 287 292 297 301 301 301 300 300 299 293 286 281 282 281 276 270 269 272 276 278 275 271 267 261 250 230 215 208 231 250 257 257 250 246 249 259 264 260 251 247 246 243 238 234 228 228 236 246 251 256 261 264 268 270 273 276 278 280 282 284 285 286 286 286 286 286 286 286 286 287 287 288 288 289 290 291 292 292 292
291 294 297 299 300 300 300 304 308 309 306 302 300 298 297 292 282 278 278 283 284 281 277 279 281 285 288 288 286 282 275 267 249 225 204 226 246 254 253 248 243 242 249 264 267 260 247 242 236 233 235 234 230 230 239 247 252 258 262 266 270 273 276 279 281 283 285 286 287 288 289 289 289 289 289 289 289 290 290 291 291 292 293 293 291 289
290 295 301 305 308 310 312 313 310 304 299 297 295 294 293 286 277 276 280 284 282 280 279 280 280 281 283 285 283 277 268 258 240 216 195 220 240 250 246 244 239 232 224 252 267 267 252 240 233 231 238 240 237 232 230 236 242 250 257 264 268 272 274 277 280 282 285 286 287 288 289 290 291 291 291 292 292 293 293 294 294 295 294 292 289 286
283 290 297 300 302 302 300 295 291 290 290 290 290 289 287 280 273 269 271 271 269 269 270 271 272 272 272 273 273 271 266 252 226 195 177 212 238 249 237 241 237 225 198 212 242 266 267 261 259 268 288 270 261 250 233 222 221 226 234 251 261 267 269 272 276 280 283 285 286 287 289 290 291 292 293 294 295 295 296 297 297 297 296 293 289 285
267 276 279 280 280 279 278 276 275 275 277 279 280 280 277 274 269 265 262 261 262 263 264 265 265 264 262 262 264 269 276 273 229 181 171 211 242 252 231 234 236 229 199 204 220 242 263 269 278 310 353 322 286 264 243 220 212 211 214 225 241 256 263 267 271 276 279 283 285 287 289 290 291 292 294 295 296 297 297 297 297 297 296 291 286 281
265 270 272 273 272 270 267 265 264 264 266 269 270 271 271 270 269 267 265 264 263 264 264 264 264 263 261 262 265 271 282 287 258 213 198 218 246 255 233 230 232 232 216 217 223 234 250 259 266 280 304 260 246 244 241 224 215 208 204 213 226 245 256 260 265 271 273 279 283 286 288 290 292 293 294 295 295 296 296 296 295 295 293 288 283 279
271 273 273 271 270 267 264 261 262 263 266 267 268 267 267 266 267 267 267 267 267 267 268 268 270 272 274 276 277 279 281 280 265 245 225 229 243 253 241 233 231 229 220 222 226 233 247 252 257 262 265 255 244 233 229 225 218 210 201 204 216 231 245 249 255 261 265 271 276 282 286 289 291 292 293 293 293 293 293 293 293 293 293 291 289 288
270 272 271 269 268 268 269 268 270 271 271 270 268 267 266 265 264 264 266 268 270 271 273 277 281 285 288 288 285 282 279 276 273 266 253 247 248 252 250 238 230 222 221 223 223 226 242 243 242 243 250 254 254 245 232 229 222 214 205 206 213 223 232 234 240 251 260 265 269 273 276 280 284 286 288 288 289 289 290 292 293 294 296 297 297 297
271 273 271 270 271 274 276 279 280 280 279 275 271 269 268 267 267 268 269 271 273 276 278 279 280 280 279 278 277 277 278 277 277 274 269 260 253 249 252 239 223 214 221 227 226 227 235 240 239 237 240 247 253 253 247 250 249 235 223 221 224 228 232 230 230 237 252 261 265 268 269 272 274 276 279 283 285 287 290 293 295 297 298 299 300 299
267 268 268 269 272 276 280 284 286 287 286 284 281 279 277 276 276 275 274 273 273 275 277 278 276 273 269 267 267 269 274 276 275 273 269 264 257 250 251 244 224 212 217 226 230 232 236 245 248 245 240 240 239 240 236 230 247 286 246 234 231 233 240 237 232 229 240 252 259 263 266 268 269 271 275 281 285 289 293 295 297 298 299 299 299 299
258 261 264 266 270 274 280 284 286 287 287 286 285 283 281 279 276 275 273 272 272 273 277 278 277 273 268 266 264 263 266 269 270 268 265 262 256 250 249 250 237 222 217 222 226 231 235 244 249 251 247 239 235 230 215 188 182 216 244 244 242 240 245 242 236 230 233 245 254 260 264 265 267 270 275 281 286 291 293 293 294 295 297 298 299 300
252 256 262 266 269 273 277 279 280 281 281 280 280 280 280 277 275 272 271 272 274 276 277 278 278 276 271 267 265 265 266 267 266 265 262 258 254 249 247 248 243 233 223 222 223 226 231 238 243 246 252 249 242 229 206 186 184 199 231 276 287 276 256 243 234 230 231 237 248 257 264 265 268 271 275 279 283 285 286 288 290 293 296 298 300 301
250 255 261 268 271 271 271 272 274 277 280 281 282 282 280 280 279 278 278 280 282 283 281 279 279 278 276 274 272 270 270 269 267 265 261 255 248 245 243 244 244 240 230 223 222 223 227 235 242 246 248 252 252 245 226 200 188 188 200 244 272 265 249 231 225 224 225 227 237 247 258 263 267 269 271 271 272 274 276 282 289 293 296 296 297 300
256 261 266 272 274 274 273 273 275 279 282 283 283 282 281 287 296 299 298 295 292 290 288 286 286 285 283 280 276 272 268 265 262 260 257 249 243 240 239 240 241 239 233 227 224 224 224 232 239 244 246 249 254 256 253 236 227 226 232 242 248 245 234 224 218 216 219 225 231 239 249 260 265 268 268 270 270 269 272 278 285 289 290 286 288 296
264 268 270 273 274 274 273 277 280 281 280 278 277 280 292 303 306 305 303 300 298 296 295 297 298 296 294 289 282 274 265 259 255 252 250 243 238 234 235 236 237 236 233 231 229 228 226 229 234 239 241 243 248 253 254 247 240 237 238 247 256 263 264 238 219 204 210 225 235 242 248 256 262 267 271 274 277 279 280 281 282 284 285 284 286 290
265 267 268 271 271 274 277 280 281 279 276 273 275 283 297 299 298 298 297 296 296 297 300 300 300 297 294 292 288 281 269 255 247 243 241 236 232 230 232 233 233 232 229 231 233 233 230 230 233 236 236 236 240 248 256 252 242 230 228 238 250 264 275 255 230 194 197 223 235 243 246 251 258 265 272 276 278 281 283 282 282 282 284 284 287 289
266 269 273 275 277 278 279 275 272 270 271 276 283 288 290 289 289 288 289 290 292 295 299 299 296 292 288 288 287 285 278 263 247 238 236 233 228 225 227 229 230 229 225 229 232 235 235 234 235 234 228 230 236 244 251 249 241 227 221 225 231 240 251 259 260 240 213 238 242 241 238 243 255 269 279 279 278 277 277 278 279 280 280 279 281 285
271 275 278 279 280 278 273 268 266 268 275 282 284 284 283 281 280 280 282 286 290 293 295 298 296 293 289 290 291 292 289 283 268 252 242 238 234 231 227 226 226 226 225 228 230 234 236 238 237 232 217 221 230 238 244 247 244 234 225 222 228 235 242 253 257 254 246 253 254 250 241 241 263 287 290 286 283 281 278 278 279 281 282 282 283 285
271 274 277 278 278 275 272 271 272 276 280 280 279 277 275 274 273 273 276 281 287 292 295 297 297 294 293 296 298 300 298 295 289 277 257 241 232 227 224 224 223 224 225 228 231 232 235 239 240 236 224 227 231 234 235 237 240 241 239 231 234 241 250 253 249 240 231 238 247 251 247 236 264 283 280 282 284 284 281 272 269 271 279 285 288 288
269 272 275 275 275 274 274 276 278 279 279 277 275 273 271 271 270 270 272 278 286 292 297 297 294 291 291 294 296 298 298 297 294 288 277 257 236 222 220 222 224 224 226 229 230 232 234 236 236 234 229 232 236 237 232 226 228 235 241 237 239 244 251 249 240 225 214 222 231 236 227 191 247 264 265 276 284 288 287 279 271 265 269 279 287 292
269 273 276 277 278 280 282 282 280 278 277 276 274 271 269 267 271 275 279 283 289 294 297 295 292 289 288 289 292 294 296 297 295 290 284 275 255 229 212 213 219 225 229 232 234 235 235 233 231 227 225 230 238 242 238 223 221 227 236 238 242 248 253 250 238 217 205 214 219 218 203 202 222 239 254 276 291 296 295 295 291 283 274 278 286 293
273 276 278 280 281 282 282 281 278 275 274 275 275 275 272 271 278 283 287 290 291 290 289 288 288 288 289 290 292 294 296 297 295 290 281 274 266 249 221 205 205 216 230 236 237 238 239 236 230 225 221 224 234 243 247 234 225 223 230 235 241 248 256 256 245 218 199 208 213 213 205 207 209 214 225 261 282 290 296 300 298 294 285 285 287 291
275 276 277 278 279 279 278 278 276 275 275 277 280 282 280 276 277 280 284 286 286 284 282 283 284 286 287 289 291 293 294 294 293 289 278 270 265 259 246 215 204 206 222 230 234 237 242 243 236 229 224 223 226 232 243 241 235 228 228 231 235 242 252 256 251 227 196 202 206 208 205 210 209 208 215 241 266 282 294 299 298 296 292 294 295 295
276 274 273 273 273 274 275 275 276 276 278 281 283 284 284 282 283 284 283 286 286 285 283 282 282 283 285 287 289 290 290 290 291 290 284 278 271 265 257 235 217 208 213 218 218 217 218 238 250 246 236 226 221 220 227 231 233 233 234 231 228 230 241 247 246 229 205 199 194 190 194 204 211 213 211 218 243 276 295 297 295 293 292 299 303 302